Mojave, CA

4:51 AM PDT on July 28, 2016 (GMT -0700)
Mojave

Weather History for KMHV - February, 2014

Change the Weather History Date:

Wednesday, February 26, 2014

  Actual Average Record
Temperature  
Mean Temperature 56 °F -  
Max Temperature 62 °F 63 °F 80 °F (1986)
Min Temperature 50 °F 37 °F 24 °F (1967)
Degree Days  
Heating Degree Days 9    
Growing Degree Days 6 (Base 50)    
Moisture  
Dew Point 43 °F    
Average Humidity 66    
Maximum Humidity 87    
Minimum Humidity 42    
Precipitation  
Precipitation 0.01 in - - ()
Sea Level Pressure  
Sea Level Pressure 29.97 in    
Wind  
Wind Speed 15 mph (SSW)    
Max Wind Speed 24 mph    
Max Gust Speed 30 mph    
Visibility 10 miles    
Events      
Averages and records for this station are not official NWS values.
T = Trace of Precipitation, MM = Missing Value Source: NWS Daily Summary

Daily Weather History Graph

Daily Weather History Graph

Search for Another Location

Airport or City:

Trip Planner

Search our weather history database for the weather conditions in past years. The results will help you decide how hot, cold, wet, or windy it might be!

Date:

Astronomy

Feb. 26, 2014 Rise Set
Actual Time 6:25 AM PST 5:45 PM PST
Civil Twilight 6:00 AM PST 6:11 PM PST
Nautical Twilight 5:30 AM PST 6:40 PM PST
Astronomical Twilight 5:01 AM PST 7:09 PM PST
Moon 4:10 AM PST (2/26) 3:09 PM PST (2/26)
Length of Visible Light 12h 10m
Length of Day
11h 19m
Waning Crescent, 9% of the Moon is Illuminated
Feb 26
Waning Crescent
Mar 1
New
Mar 8
First Quarter
Mar 16
Full
Mar 23
Last Quarter

Hourly Weather History & Observations

Time (PST) Temp. Dew Point Humidity Pressure Visibility Wind Dir Wind Speed Gust Speed Precip Events Conditions
10:55 AM 53.6 °F 41.0 °F 62% 30.02 in 10.0 mi SW 8.1 mph - N/A   Scattered Clouds
11:15 AM 55.4 °F 41.0 °F 58% 30.02 in 10.0 mi SSW 16.1 mph 24.2 mph N/A   Scattered Clouds
11:35 AM 55.4 °F 41.0 °F 58% 30.02 in 10.0 mi SSW 12.7 mph - N/A   Mostly Cloudy
11:55 AM 55.4 °F 41.0 °F 58% 30.00 in 10.0 mi SSW 13.8 mph - N/A   Mostly Cloudy
12:15 PM 57.2 °F 41.0 °F 55% 30.00 in 10.0 mi SSW 18.4 mph 24.2 mph N/A   Partly Cloudy
12:35 PM 59.0 °F 41.0 °F 51% 30.00 in 10.0 mi SW 17.3 mph 25.3 mph N/A   Clear
12:55 PM 59.0 °F 41.0 °F 51% 29.98 in 10.0 mi SSW 17.3 mph - N/A   Partly Cloudy
1:15 PM 59.0 °F 41.0 °F 51% 29.97 in 10.0 mi SSW 15.0 mph 19.6 mph N/A   Partly Cloudy
1:35 PM 62.6 °F 39.2 °F 42% 29.96 in 10.0 mi SSW 13.8 mph - N/A   Scattered Clouds
1:55 PM 62.6 °F 41.0 °F 45% 29.95 in 10.0 mi SSW 13.8 mph 20.7 mph N/A   Partly Cloudy
2:15 PM 62.6 °F 41.0 °F 45% 29.95 in 10.0 mi South 16.1 mph - N/A   Clear
2:35 PM 62.6 °F 41.0 °F 45% 29.95 in 10.0 mi SSW 17.3 mph 20.7 mph N/A   Clear
2:55 PM 60.8 °F 41.0 °F 48% 29.95 in 10.0 mi South 18.4 mph 23.0 mph N/A   Clear
3:15 PM 60.8 °F 41.0 °F 48% 29.96 in 10.0 mi SSW 18.4 mph 24.2 mph N/A   Scattered Clouds
3:35 PM 60.8 °F 41.0 °F 48% 29.95 in 10.0 mi SW 18.4 mph 27.6 mph N/A   Scattered Clouds
3:55 PM 60.8 °F 41.0 °F 48% 29.95 in 10.0 mi SSW 18.4 mph 24.2 mph N/A   Partly Cloudy
4:15 PM 59.0 °F 41.0 °F 51% 29.94 in 10.0 mi SW 21.9 mph 27.6 mph N/A   Clear
4:35 PM 57.2 °F 41.0 °F 55% 29.96 in 10.0 mi SSW 24.2 mph 29.9 mph N/A   Mostly Cloudy
4:55 PM 55.4 °F 41.0 °F 58% 29.96 in 10.0 mi SSW 19.6 mph 27.6 mph N/A   Overcast
5:15 PM 55.4 °F 41.0 °F 58% 29.95 in 10.0 mi SSW 15.0 mph 24.2 mph N/A   Scattered Clouds
5:35 PM 55.4 °F 42.8 °F 63% 29.95 in 10.0 mi SSW 19.6 mph 25.3 mph N/A   Clear
5:55 PM 53.6 °F 42.8 °F 67% 29.96 in 10.0 mi SSW 18.4 mph 25.3 mph N/A   Clear
6:15 PM 53.6 °F 42.8 °F 67% 29.97 in 10.0 mi SSW 18.4 mph 21.9 mph N/A   Partly Cloudy
6:35 PM 53.6 °F 42.8 °F 67% 29.97 in 10.0 mi SSW 13.8 mph - N/A   Partly Cloudy
6:55 PM 53.6 °F 41.0 °F 62% 29.97 in 10.0 mi SW 18.4 mph - N/A   Clear
7:15 PM 53.6 °F 42.8 °F 67% 29.97 in 10.0 mi SSW 18.4 mph - N/A   Scattered Clouds
7:35 PM 51.8 °F 44.6 °F 76% 29.98 in 10.0 mi SSW 15.0 mph - N/A   Scattered Clouds
7:55 PM 50.0 °F 46.4 °F 87% 29.99 in 10.0 mi SSW 15.0 mph - N/A   Scattered Clouds
8:15 PM 50.0 °F 46.4 °F 87% 29.99 in 10.0 mi SSW 11.5 mph - N/A   Mostly Cloudy
8:35 PM 50.0 °F 46.4 °F 87% 29.99 in 8.0 mi SW 10.4 mph - N/A   Mostly Cloudy
8:55 PM 50.0 °F 46.4 °F 87% 29.98 in 10.0 mi SSW 9.2 mph - N/A   Mostly Cloudy
9:15 PM 50.0 °F 46.4 °F 87% 29.98 in 10.0 mi SSW 17.3 mph - N/A   Scattered Clouds
9:35 PM 50.0 °F 46.4 °F 87% 29.98 in 10.0 mi SSW 12.7 mph 19.6 mph N/A   Partly Cloudy
9:55 PM 50.0 °F 46.4 °F 87% 29.98 in 7.0 mi SSW 17.3 mph 24.2 mph N/A   Mostly Cloudy
10:15 PM 50.0 °F 46.4 °F 87% 29.98 in 9.0 mi SSW 17.3 mph - N/A   Mostly Cloudy
10:35 PM 50.0 °F 46.4 °F 87% 29.97 in 10.0 mi SW 13.8 mph - N/A   Mostly Cloudy
10:55 PM 50.0 °F 46.4 °F 87% 29.96 in 10.0 mi SW 15.0 mph - 0.01 in   Mostly Cloudy
11:15 PM 50.0 °F 46.4 °F 87% 29.97 in 9.0 mi SW 11.5 mph - N/A   Mostly Cloudy
11:35 PM 50.0 °F 46.4 °F 87% 29.95 in 10.0 mi SSW 6.9 mph - N/A   Mostly Cloudy
11:55 PM 50.0 °F 46.4 °F 87% 29.94 in 10.0 mi SSW 10.4 mph - N/A   Mostly Cloudy